RH
80 53 48 39 29 22 21 25 22 21 33 21 20 19 25 28 35 62 64 61 32 15 12 23 31 14 30 34 48 63 68 70 69 69 73 81 72 73 72 67 65 62 54 67
54 65 69 50 40 28 23 20 20 21 21 21 24 23 32 28 30 79 79 72 47 11 10 21 14 10 13 13 15 31 54 60 62 79 84 91 92 97 97 71 71 69 69 66
18 49 57 60 66 49 46 42 30 24 37 24 24 24 29 29 32 58 70 69 44 8 18 10 7 13 9 9 12 19 20 30 50 67 74 83 85 86 91 81 74 71 74 73
9 39 52 58 56 62 51 51 26 22 22 24 49 38 98 52 37 52 68 50 26 12 37 20 7 6 6 6 7 8 14 24 34 45 64 79 92 90 98 94 78 67 78 69
8 12 21 47 49 52 53 40 28 26 26 24 41 30 62 74 42 48 50 27 19 23 35 44 9 7 7 6 6 6 8 11 16 48 60 66 87 84 97 97 94 68 77 72
10 10 14 27 57 60 38 32 32 32 29 29 28 45 64 94 36 35 17 13 21 36 36 33 9 9 8 9 8 8 9 13 16 21 21 30 59 82 88 93 68 69 66 73
10 8 8 13 26 53 58 47 40 40 38 26 34 56 31 65 24 16 11 8 20 21 14 10 10 10 10 10 10 10 10 11 22 20 14 16 36 58 56 73 59 61 65 75
12 10 9 8 11 28 56 56 47 47 75 48 59 31 21 21 16 13 10 9 14 22 27 22 12 11 10 10 10 11 11 12 12 18 20 14 24 47 45 48 65 74 74 66
11 8 9 10 12 23 29 38 41 48 50 64 96 23 17 12 15 12 10 10 11 13 12 13 13 11 10 9 10 12 12 12 12 18 17 13 18 36 59 51 62 73 62 56
15 13 12 12 16 15 30 30 39 39 42 34 24 56 10 9 11 10 11 14 13 12 12 12 12 10 10 11 11 12 13 14 14 16 16 16 23 29 38 56 67 68 62 55
18 15 14 13 10 14 12 16 21 31 32 27 22 34 9 13 16 12 12 13 10 12 12 13 10 10 12 13 12 13 13 14 16 17 18 18 22 25 31 48 54 60 56 65
26 18 20 10 12 12 17 12 14 16 16 10 12 63 16 13 18 12 13 11 12 12 15 14 13 11 13 16 17 15 14 15 16 18 18 18 19 21 27 34 46 54 67 75
29 30 22 25 17 11 12 13 13 16 23 13 12 11 17 12 20 19 18 21 25 24 20 19 18 16 15 15 17 19 19 18 19 21 22 20 21 22 28 39 48 47 48 56
41 34 31 20 8 12 10 9 12 13 11 7 6 15 11 12 18 23 20 26 37 41 35 32 26 20 18 19 20 19 20 24 22 22 24 25 26 29 32 31 32 40 44 44
43 36 32 17 21 21 13 11 11 12 6 11 12 12 20 14 17 26 27 23 25 44 51 40 31 27 24 23 24 24 22 22 24 27 28 30 30 31 32 34 31 31 40 46
51 46 36 26 28 25 18 14 13 10 11 11 13 12 16 16 19 19 26 28 32 35 53 59 51 45 34 29 28 28 26 26 25 24 24 27 30 32 36 41 42 42 39 38
33 47 55 28 29 29 28 16 12 10 10 10 12 13 17 16 18 19 24 35 37 46 52 52 49 52 45 34 32 30 30 30 30 27 26 27 27 30 35 39 46 49 59 78
12 50 51 41 66 76 16 22 18 15 13 13 14 17 16 19 21 22 24 28 31 39 53 55 57 48 43 39 38 38 35 32 32 33 33 32 31 33 33 34 43 47 55 64
15 34 67 53 73 41 32 27 21 18 14 16 15 17 18 20 24 26 27 30 33 39 48 59 53 49 48 47 47 46 45 42 40 40 41 42 41 40 38 39 51 48 50 66
37 31 56 60 72 78 22 26 29 35 27 26 28 26 29 34 34 33 39 47 59 66 62 60 56 58 58 58 58 56 51 51 50 49 49 47 48 47 46 42 42 54 65 71
99 94 92 62 59 73 43 31 38 53 20 34 42 47 52 66 65 50 66 71 74 76 82 80 78 78 74 70 65 62 57 56 55 53 50 48 49 50 47 43 43 42 51 50
100 100 100 97 84 90 40 33 40 38 42 49 53 57 66 64 69 69 77 82 89 91 92 88 83 80 76 74 70 66 63 61 62 62 60 55 53 51 47 43 42 47 50 56
97 100 100 86 100 92 60 43 51 50 44 58 63 64 71 74 76 84 88 92 95 95 92 88 85 78 70 68 67 66 67 71 72 67 61 58 57 52 46 43 44 46 55 55
92 100 98 88 91 93 100 98 95 80 72 72 75 71 72 84 87 84 81 80 80 80 87 90 84 78 76 79 79 80 79 74 70 69 68 65 56 48 43 42 44 46 52 54
100 100 98 100 100 99 95 90 94 98 96 95 92 89 82 89 97 100 87 71 75 84 93 90 87 80 90 85 75 73 73 73 74 74 69 61 54 49 46 48 51 54 55 56
47 32 39 58 73 76 81 94 88 85 88 88 88 96 86 87 90 89 86 89 92 98 85 85 83 99 96 85 78 80 83 82 79 76 70 62 59 57 58 59 59 60 54 49
Wind_Speed
48 43 43 41 34 32 36 39 33 26 30 30 27 23 21 18 16 18 19 15 18 19 17 18 16 13 10 10 12 7 2 4 6 9 12 13 13 16 15 15 14 15 15 15
45 48 49 42 39 36 38 39 34 29 31 33 28 25 24 20 19 20 21 20 19 18 17 16 15 14 10 9 7 6 6 5 6 7 10 11 13 17 18 14 16 16 15 14
37 40 45 47 43 38 40 38 35 31 36 34 30 28 26 23 22 20 21 23 19 17 14 12 9 10 9 9 8 6 7 7 7 6 8 12 12 11 13 17 15 16 15 13
41 40 41 43 43 38 40 36 33 35 37 32 32 31 22 25 24 22 24 25 17 19 16 9 8 8 8 8 8 9 10 8 8 8 9 12 12 10 12 18 17 16 15 14
41 41 41 39 36 37 34 36 34 35 35 33 37 32 21 28 23 22 24 26 18 23 21 15 10 10 9 7 8 9 10 13 13 11 11 14 15 13 18 22 21 16 13 15
43 43 43 39 37 34 30 35 35 34 34 42 33 33 26 26 21 24 24 24 21 21 21 16 11 11 10 9 9 10 10 13 13 13 13 14 15 16 15 18 17 15 15 17
44 49 43 42 41 41 42 37 39 41 44 44 31 36 26 28 20 23 21 21 23 22 18 14 13 13 12 11 10 11 11 12 13 13 14 13 13 14 16 17 16 16 17 18
44 48 47 44 44 41 43 43 46 46 37 34 38 36 24 25 23 24 22 22 22 21 21 17 16 17 15 14 12 12 12 13 15 16 16 15 12 14 13 13 17 18 18 19
48 44 45 44 43 43 43 47 40 44 44 38 31 28 28 25 24 26 24 23 21 20 21 20 19 20 19 17 16 15 14 15 16 16 17 18 17 15 15 15 17 19 21 21
47 48 44 42 42 45 48 43 47 47 47 42 37 34 27 27 24 25 25 24 23 22 21 21 22 21 21 20 19 17 17 18 17 18 19 18 19 20 19 18 19 20 22 23
42 49 49 47 47 46 49 48 48 46 46 41 38 33 27 27 23 26 27 26 25 24 24 23 21 21 20 23 23 21 21 21 22 21 21 21 21 21 22 23 23 25 27 27
46 47 54 48 41 43 48 48 48 48 47 40 38 31 30 21 25 28 27 26 25 25 23 22 21 22 23 25 25 25 25 25 26 25 23 23 24 25 25 26 28 29 29 30
49 49 49 54 51 49 52 53 51 47 41 44 38 34 34 24 24 24 25 22 22 22 24 24 25 26 27 27 27 26 26 28 29 28 26 26 26 27 28 29 29 29 31 32
49 55 53 53 46 44 51 51 51 48 47 42 38 35 36 30 28 27 28 25 22 23 26 27 27 28 28 28 28 28 28 29 29 29 29 27 28 29 29 30 30 32 34 33
55 56 55 52 47 51 47 48 49 47 43 43 36 36 34 30 26 29 31 30 27 24 25 27 27 28 30 29 28 28 28 30 31 30 29 30 30 31 31 29 30 32 33 33
58 56 51 55 49 52 55 47 45 48 40 40 39 36 34 32 33 34 33 34 31 27 27 30 30 28 30 32 31 30 32 32 34 34 32 30 31 32 32 32 32 33 33 34
65 58 56 58 50 49 58 55 51 48 49 46 45 38 40 35 36 35 36 35 32 30 32 34 31 29 30 31 33 33 34 36 37 37 35 33 33 33 35 36 33 34 34 34
65 61 62 60 48 54 53 52 53 51 49 48 45 44 42 38 39 38 38 36 35 36 37 35 34 35 32 32 32 34 35 37 39 40 40 39 37 34 36 38 38 37 37 38
64 64 60 58 55 54 53 54 50 53 54 50 47 45 43 40 37 37 36 37 36 37 37 38 37 37 37 35 34 35 36 38 39 41 43 43 41 41 39 37 39 42 41 38
61 65 69 64 58 52 54 53 47 43 50 44 44 45 40 37 37 35 34 35 36 38 39 39 40 40 39 39 38 37 38 40 41 42 43 44 44 44 45 44 42 43 44 43
58 55 58 68 63 55 61 54 49 47 49 44 40 38 36 32 36 37 36 38 39 40 40 39 41 42 42 42 42 43 43 43 44 44 45 45 46 47 47 48 48 48 48 46
57 60 51 53 64 57 60 62 56 51 48 46 41 40 41 41 39 41 42 42 42 42 43 44 46 48 47 47 47 47 47 47 47 47 47 47 47 49 50 50 51 51 50 48
65 62 59 63 44 53 62 62 53 50 48 47 45 43 41 41 41 42 43 44 45 46 47 48 49 50 51 51 50 49 48 46 46 47 48 49 50 50 51 52 52 52 52 53
57 62 69 69 66 56 45 46 46 47 48 47 46 47 45 44 45 46 48 50 52 52 52 51 52 52 52 49 49 49 49 50 50 50 50 50 50 50 50 50 50 50 50 49
47 57 51 46 50 48 52 51 49 47 45 44 42 45 42 46 44 43 47 51 54 54 53 56 55 55 52 52 53 53 53 52 52 52 51 51 50 50 50 49 50 50 50 50
70 71 61 55 55 58 60 57 56 55 55 58 57 55 55 61 59 56 59 60 59 61 58 52 52 51 55 56 54 53 53 54 54 53 53 53 53 53 53 54 54 54 55 54
Wind_Direction
241 244 246 250 247 245 247 254 257 259 260 263 263 262 261 258 259 261 263 284 287 295 280 273 288 296 275 289 294 282 299 275 260 268 277 284 285 280 285 292 294 291 287 296
243 246 247 248 245 243 246 250 254 256 259 260 261 261 258 255 256 256 265 277 285 284 264 268 283 279 280 284 291 294 292 286 283 277 284 305 301 309 295 290 291 293 290 295
246 244 243 245 245 242 246 251 253 255 257 255 260 257 257 254 255 257 262 270 281 260 244 266 275 268 283 298 309 311 309 298 294 280 290 310 310 316 296 286 291 296 291 297
236 238 239 242 244 242 245 248 251 248 248 254 260 259 254 253 256 254 264 269 262 233 235 256 260 263 275 285 302 312 315 316 308 312 313 323 310 298 306 290 287 294 288 298
237 239 241 239 238 238 239 242 243 246 248 250 250 256 234 256 253 254 255 260 237 222 233 244 248 257 265 279 297 305 313 313 315 323 322 320 306 293 302 309 292 285 284 299
237 237 236 236 237 234 231 234 239 244 245 246 246 251 250 253 247 252 248 242 216 230 228 232 236 249 261 272 289 299 306 313 311 316 317 310 314 291 287 303 286 286 289 301
239 239 234 233 232 225 225 225 234 237 240 247 250 248 248 242 249 245 233 219 210 213 224 228 241 243 255 260 268 282 292 299 300 303 306 313 307 296 296 286 284 292 301 306
244 241 240 236 235 233 231 229 234 237 240 253 248 250 246 245 241 230 216 211 210 215 227 234 244 247 255 259 264 271 279 285 286 285 290 296 304 290 290 290 284 292 305 307
243 242 242 239 239 235 233 233 235 240 242 238 246 246 243 242 231 222 217 215 217 216 220 230 240 249 254 260 264 267 267 274 278 281 282 290 295 290 279 289 293 289 297 304
240 244 245 244 238 231 236 234 233 235 238 242 244 244 248 239 226 218 220 222 226 226 226 234 242 248 254 262 263 264 264 264 265 268 276 283 284 287 287 287 287 292 296 298
237 240 240 238 232 232 231 232 233 237 240 244 246 247 246 242 224 219 225 229 234 235 238 240 243 251 251 263 265 263 261 263 261 262 269 278 282 284 287 288 285 286 290 294
233 241 238 241 239 235 236 234 237 241 242 244 242 234 235 228 227 227 230 233 239 243 247 249 244 245 251 252 258 261 263 263 266 270 273 275 281 285 285 282 282 285 285 288
225 231 236 237 233 226 229 230 233 233 237 238 238 237 241 230 233 230 232 234 238 244 247 248 248 246 247 251 255 258 261 264 269 271 273 275 279 282 285 285 285 286 290 291
232 230 238 238 235 239 232 233 232 232 233 230 227 231 236 232 231 236 239 239 242 246 249 252 253 253 253 257 260 262 265 267 270 276 278 280 280 283 283 283 286 286 287 289
230 231 229 231 232 238 237 237 238 237 231 231 229 233 231 241 239 242 246 247 247 240 241 244 250 257 263 265 263 266 268 271 273 273 278 281 284 286 287 285 282 282 283 284
223 231 228 229 231 228 232 229 233 234 234 236 239 237 241 234 239 239 241 246 250 250 244 249 253 260 264 267 269 271 272 272 275 279 280 281 284 286 285 285 284 280 281 283
219 224 229 228 229 231 232 228 230 230 228 228 229 233 239 232 234 238 241 242 248 251 252 254 258 260 262 263 266 268 270 272 275 278 280 281 283 284 287 286 284 287 287 288
219 217 226 227 231 229 225 229 230 233 232 232 236 238 240 241 240 236 236 241 249 253 257 261 261 264 263 262 261 266 269 271 274 277 280 282 283 285 286 285 286 287 285 288
217 216 220 221 225 231 228 226 227 230 235 237 241 243 243 243 243 243 244 245 248 252 256 260 264 268 271 267 265 267 269 271 272 273 276 280 283 286 286 283 283 284 284 283
218 218 219 222 226 227 224 228 225 228 231 231 233 242 245 246 247 248 249 252 255 256 258 260 265 267 267 268 270 271 271 271 271 272 274 277 280 283 284 285 284 283 281 282
211 210 220 225 226 230 231 230 230 229 231 233 231 232 235 236 238 244 244 245 248 253 256 258 259 262 265 268 272 273 273 272 273 274 275 277 278 280 282 283 282 280 279 282
208 208 213 218 219 219 229 232 235 234 235 237 235 236 237 240 243 244 245 248 250 253 256 259 262 266 269 272 273 274 274 273 273 274 275 276 277 279 280 280 278 277 278 281
216 216 216 216 210 217 225 232 235 236 236 238 240 239 241 244 243 244 246 250 254 257 260 262 265 269 272 274 274 274 273 272 273 275 276 276 277 278 278 278 277 276 275 276
209 212 222 228 228 224 221 227 233 238 240 239 242 244 243 244 249 252 254 257 259 261 262 266 270 273 274 273 275 275 275 277 278 278 278 277 278 278 278 277 277 278 278 278
227 232 230 230 216 219 224 228 233 238 242 245 246 247 249 246 241 246 251 257 261 261 264 272 273 273 268 273 278 278 278 278 278 277 276 276 276 276 276 275 276 277 278 278
226 228 231 236 232 232 236 240 241 242 242 244 245 246 245 247 255 257 259 260 260 263 269 269 270 265 272 276 276 274 274 274 275 274 275 275 275 275 274 274 274 275 276 276